Laramie, WY

1:56 AM MDT on September 26, 2017 (GMT -0600)
Laramie Regional

Weather History for KLAR - July, 2013

Change the Weather History Date:

Friday, July 12, 2013

  Actual Average Record
Temperature  
Mean Temperature 68 °F 64 °F  
Max Temperature 80 °F 80 °F 93 °F (1954)
Min Temperature 56 °F 48 °F 34 °F (2016)
Degree Days  
Heating Degree Days 0 2  
Month to date heating degree days 6 34  
Since 1 June heating degree days 109 275  
Since 1 July heating degree days 6 34  
Cooling Degree Days 3 1  
Month to date cooling degree days 37 12  
Year to date cooling degree days 73 19  
Since 1 June cooling degree days 73 19  
Growing Degree Days 18 (Base 50)    
Moisture  
Dew Point 51 °F    
Average Humidity 65    
Maximum Humidity 100    
Minimum Humidity 30    
Precipitation  
Precipitation 0.17 in 0.04 in 0.65 in (1957)
Month to date precipitation 0.46 0.49  
Year to date precipitation 3.87 5.98  
Sea Level Pressure  
Sea Level Pressure 29.90 in    
Wind  
Wind Speed 12 mph (SSW)    
Max Wind Speed 36 mph    
Max Gust Speed 44 mph    
Visibility 9 miles    
Events Rain , Thunderstorm    
T = Trace of Precipitation, MM = Missing Value Source: NWS Daily Summary

Daily Weather History Graph

Daily Weather History Graph

Search for Another Location

Airport or City:

Trip Planner

Search our weather history database for the weather conditions in past years. The results will help you decide how hot, cold, wet, or windy it might be!

Date:

Astronomy

Jul. 12, 2013 Rise Set
Actual Time 5:40 AM MDT 8:35 PM MDT
Civil Twilight 5:07 AM MDT 9:08 PM MDT
Nautical Twilight 4:25 AM MDT 9:50 PM MDT
Astronomical Twilight 3:36 AM MDT 10:38 PM MDT
Moon 10:03 AM MDT (7/12) 10:44 PM MDT (7/12)
Length of Visible Light 16h 01m
Length of Day
14h 55m
Waxing Crescent, 18% of the Moon is Illuminated
Jul 12
Waxing Crescent
Jul 15
First Quarter
Jul 22
Full
Jul 29
Last Quarter
Aug 6
New

Hourly Weather History & Observations

Time (MDT) Temp. Dew Point Humidity Pressure Visibility Wind Dir Wind Speed Gust Speed Precip Events Conditions
12:53 AM 72.0 °F 44.1 °F 37% 29.70 in 10.0 mi SW 17.3 mph 23.0 mph N/A   Scattered Clouds
1:53 AM 70.0 °F 46.0 °F 42% 29.73 in 10.0 mi West 13.8 mph - N/A   Mostly Cloudy
2:53 AM 68.0 °F 46.9 °F 47% 29.73 in 10.0 mi WNW 6.9 mph - N/A   Mostly Cloudy
3:53 AM 66.0 °F 46.9 °F 50% 29.73 in 10.0 mi SW 11.5 mph - N/A   Clear
4:53 AM 64.9 °F 48.0 °F 54% 29.75 in 10.0 mi SSW 13.8 mph - N/A   Overcast
5:53 AM 64.0 °F 48.9 °F 58% 29.78 in 10.0 mi SW 12.7 mph - 0.00 in   Partly Cloudy
6:53 AM 64.9 °F 48.9 °F 56% 29.78 in 10.0 mi WSW 15.0 mph - N/A   Clear
7:53 AM 70.0 °F 46.9 °F 44% 29.78 in 10.0 mi WSW 17.3 mph - N/A   Clear
8:53 AM 71.1 °F 46.9 °F 42% 29.80 in 10.0 mi West 9.2 mph - N/A   Partly Cloudy
9:53 AM 72.0 °F 46.9 °F 41% 29.80 in 10.0 mi WSW 5.8 mph - N/A   Mostly Cloudy
10:53 AM 75.0 °F 46.0 °F 36% 29.80 in 10.0 mi Calm Calm - N/A   Partly Cloudy
11:53 AM 79.0 °F 46.0 °F 31% 29.79 in 10.0 mi Calm Calm - N/A   Mostly Cloudy
12:53 PM 80.1 °F 46.0 °F 30% 29.77 in 10.0 mi Variable 4.6 mph - N/A   Mostly Cloudy
1:33 PM 73.4 °F 51.8 °F 47% 30.19 in 1.8 mi Calm Calm - 0.07 in Rain , Thunderstorm Light Rain
1:45 PM 71.6 °F 53.6 °F 53% 30.19 in 6.0 mi NNW 13.8 mph - 0.08 in Rain Light Rain
1:53 PM 71.1 °F 54.0 °F 55% 29.81 in 9.0 mi North 11.5 mph - 0.08 in Rain , Thunderstorm Light Rain
2:08 PM 73.4 °F 55.4 °F 53% 30.19 in 10.0 mi Variable 4.6 mph - 0.00 in Rain Light Rain
2:29 PM 69.8 °F 53.6 °F 56% 30.17 in 10.0 mi SE 18.4 mph - 0.01 in Rain , Thunderstorm Light Rain
2:53 PM 68.0 °F 57.0 °F 68% 29.86 in 5.0 mi SSE 13.8 mph - 0.01 in Rain Light Rain
3:53 PM 78.1 °F 51.1 °F 39% 29.79 in 10.0 mi SSE 29.9 mph 36.8 mph 0.00 in   Clear
4:53 PM 75.0 °F 51.1 °F 43% 29.79 in 10.0 mi SSE 26.5 mph 36.8 mph N/A   Clear
5:53 PM 68.0 °F 52.0 °F 56% 29.85 in 10.0 mi South 20.7 mph 31.1 mph N/A Thunderstorm Overcast
6:22 PM 64.4 °F 55.4 °F 73% 30.19 in 10.0 mi South 16.1 mph - 0.00 in Rain Light Rain
6:51 PM 62.6 °F 57.2 °F 82% 30.19 in 10.0 mi SE 15.0 mph - 0.01 in Rain , Thunderstorm Light Rain
6:53 PM 63.0 °F 55.9 °F 78% 29.87 in 10.0 mi SE 12.7 mph - 0.01 in Thunderstorm Overcast
7:06 PM 64.4 °F 55.4 °F 73% 30.20 in 10.0 mi SSE 9.2 mph - N/A   Overcast
7:53 PM 64.0 °F 55.0 °F 73% 29.88 in 10.0 mi WSW 6.9 mph - 0.00 in   Overcast
8:53 PM 62.1 °F 55.9 °F 80% 29.93 in 6.0 mi WSW 13.8 mph 19.6 mph 0.01 in Rain Light Rain
9:53 PM 60.1 °F 57.0 °F 90% 29.94 in 8.0 mi South 8.1 mph - 0.05 in Rain Light Rain
10:53 PM 57.9 °F 55.9 °F 93% 29.90 in 10.0 mi SE 5.8 mph - 0.01 in   Partly Cloudy
11:53 PM 57.9 °F 57.0 °F 97% 29.88 in 10.0 mi SSW 9.2 mph - N/A   Mostly Cloudy